View from above orbital plane
|
View from above satellite
|
Ground track
|
The orbit data is extracted from the following two-line orbital elements,
1 7003U 73107A 22229.17305826 .00005403 00000-0 19556-3 0 9998
2 7003 73.9213 241.5999 0354412 155.8229 206.0058 14.85527943492292
Epoch (UTC): | 17 August 2022 04:09:12 |
Eccentricity: | 0.0354412 |
inclination: | 73.9213° |
perigee height: | 364 km |
apogee height: | 859 km |
right ascension of ascending node: | 241.5999° |
argument of perigee: | 155.8229° |
revolutions per day: | 14.85527943 |
mean anomaly at epoch: | 206.0058° |
orbit number at epoch: | 49229 |
The dashed part of the orbit path shows where the satellite is in the earth's shadow,
|
|